Weather History for Kansas City International, MO

Change the Weather History Date:

Monday, February 17, 2014

  Actual Average Record
Temperature  
Mean Temperature 43 °F 34 °F  
Max Temperature 52 °F 44 °F 74 °F (2011)
Min Temperature 33 °F 24 °F -9 °F (1903)
Degree Days  
Heating Degree Days 22 31  
Month to date heating degree days 780 566  
Since 1 July heating degree days 4224 3730  
Cooling Degree Days 0 0  
Month to date cooling degree days 0 0  
Year to date cooling degree days 0 0  
Moisture  
Dew Point 28 °F    
Average Humidity 60    
Maximum Humidity 82    
Minimum Humidity 38    
Precipitation  
Precipitation 0.00 in 0.05 in 1.69 in (1961)
Month to date precipitation 0.78 0.84  
Year to date precipitation 1.17 1.91  
Snow  
Snow 0.00 in 0.20 in 6.00 in (1893)
Month to date snowfall 11.3 3.6  
Since 1 July snowfall 22.6 14.4  
Snow Depth 2.00 in    
Sea Level Pressure  
Sea Level Pressure 29.92 in    
Wind  
Wind Speed 12 mph (WSW)    
Max Wind Speed 22 mph    
Max Gust Speed 29 mph    
Visibility 10 miles    
Events      
T = Trace of Precipitation, MM = Missing Value Source: NWS Daily Summary

Daily Weather History Graph

Daily Weather History Graph

Search for Another Location

Airport:

Trip Planner

Search our weather history database for the weather conditions in past years. The results will help you decide how hot, cold, wet, or windy it might be!

Date:

Astronomy

Feb. 17, 2014 Rise Set
Actual Time 7:08 AM CST 5:58 PM CST
Civil Twilight 6:40 AM CST 6:25 PM CST
Nautical Twilight 6:09 AM CST 6:56 PM CST
Astronomical Twilight 5:38 AM CST 7:28 PM CST
Moon 8:52 PM CST 8:10 AM CST
Length of Visible Light 11h 44m
Length of Day
10h 50m
Waning Gibbous, 93% of the Moon is Illuminated
Feb 17
Waning Gibbous
Feb 22
Last Quarter
Mar 1
New
Mar 8
First Quarter
Mar 16
Full

Hourly Weather History & Observations

Time (CST) Temp. Windchill Dew Point Humidity Pressure Visibility Wind Dir Wind Speed Gust Speed Precip Events Conditions
12:53 AM 34.0 °F 23.4 °F 27.0 °F 75% 29.87 in 10.0 mi SE 17.3 mph - N/A   Overcast
1:53 AM 35.1 °F 24.5 °F 28.0 °F 76% 29.84 in 10.0 mi SE 18.4 mph - N/A   Overcast
2:53 AM 36.0 °F 28.0 °F 28.9 °F 76% 29.82 in 10.0 mi ESE 11.5 mph - N/A   Overcast
3:53 AM 36.0 °F 28.0 °F 28.9 °F 76% 29.78 in 10.0 mi ESE 11.5 mph - N/A   Overcast
4:03 AM 36.0 °F 29.6 °F 28.9 °F 76% 29.76 in 10.0 mi East 8.1 mph - N/A   Overcast
4:53 AM 37.0 °F 30.4 °F 28.9 °F 73% 29.77 in 10.0 mi SE 9.2 mph - N/A   Overcast
5:37 AM 37.0 °F 32.4 °F 30.0 °F 76% 29.75 in 10.0 mi SSE 5.8 mph - N/A   Overcast
5:53 AM 37.0 °F 33.3 °F 30.0 °F 76% 29.79 in 10.0 mi WNW 4.6 mph - 0.00 in   Overcast
6:53 AM 35.1 °F 29.3 °F 28.9 °F 78% 29.81 in 10.0 mi NW 6.9 mph - N/A   Partly Cloudy
7:53 AM 36.0 °F 29.0 °F 30.0 °F 79% 29.86 in 9.0 mi NW 9.2 mph - N/A   Overcast
8:53 AM 37.0 °F 28.1 °F 30.0 °F 76% 29.90 in 10.0 mi NW 15.0 mph 25.3 mph N/A   Mostly Cloudy
9:53 AM 39.9 °F 31.4 °F 30.0 °F 68% 29.94 in 10.0 mi NW 16.1 mph - N/A   Partly Cloudy
10:53 AM 43.0 °F 34.5 °F 30.9 °F 62% 29.98 in 10.0 mi WNW 19.6 mph 27.6 mph N/A   Clear
11:53 AM 46.0 °F 39.3 °F 32.0 °F 58% 29.99 in 10.0 mi WNW 16.1 mph - N/A   Clear
12:53 PM 48.0 °F - 32.0 °F 54% 29.97 in 10.0 mi WNW 15.0 mph - N/A   Clear
1:53 PM 50.0 °F - 30.9 °F 48% 29.96 in 10.0 mi WNW 12.7 mph - N/A   Clear
2:53 PM 51.1 °F - 28.0 °F 41% 29.97 in 10.0 mi WNW 13.8 mph 23.0 mph N/A   Partly Cloudy
3:53 PM 51.1 °F - 27.0 °F 39% 30.00 in 10.0 mi West 12.7 mph - N/A   Clear
4:53 PM 50.0 °F - 26.1 °F 39% 30.01 in 10.0 mi West 10.4 mph - N/A   Clear
5:53 PM 45.0 °F 40.6 °F 25.0 °F 46% 30.01 in 10.0 mi SW 8.1 mph - N/A   Partly Cloudy
6:53 PM 44.1 °F 39.5 °F 24.1 °F 45% 30.02 in 10.0 mi SW 8.1 mph - N/A   Partly Cloudy
7:53 PM 41.0 °F 37.1 °F 23.0 °F 49% 30.01 in 10.0 mi SSW 5.8 mph - N/A   Clear
8:53 PM 39.0 °F 33.4 °F 23.0 °F 53% 30.01 in 10.0 mi South 8.1 mph - N/A   Clear
9:53 PM 36.0 °F 28.5 °F 23.0 °F 59% 30.01 in 10.0 mi South 10.4 mph - N/A   Clear
10:53 PM 37.0 °F 29.8 °F 24.1 °F 59% 29.98 in 10.0 mi South 10.4 mph - N/A   Partly Cloudy
11:53 PM 42.1 °F 35.7 °F 24.1 °F 49% 29.96 in 10.0 mi SSW 11.5 mph - N/A   Clear